Time,TemperatureF,DewpointF,PressureIn,WindDirection,WindDirectionDegrees,WindSpeedMPH,WindSpeedGustMPH,Humidity,HourlyPrecipIn,Conditions,Clouds,dailyrainin,SolarRadiationWatts/m^2,SoftwareType,DateUTC
2013-02-16 00:01:00,59.0,24.0,-100.00,North,11,9.0,11.0,26,0.00,,,0.00,0.000000,,2013-02-16 08:01:00,
2013-02-16 00:11:00,59.0,24.0,-100.00,North,11,9.0,11.0,26,0.00,,,0.00,0.000000,,2013-02-16 08:11:00,
2013-02-16 00:21:00,59.0,24.0,-100.00,North,11,9.0,11.0,26,0.00,,,0.00,0.000000,,2013-02-16 08:21:00,
2013-02-16 00:52:00,58.0,23.0,-100.00,North,4,9.0,14.0,26,0.00,,,0.00,0.000000,,2013-02-16 08:52:00,
2013-02-16 01:01:00,58.0,23.0,-100.00,North,4,9.0,14.0,26,0.00,,,0.00,0.000000,,2013-02-16 09:01:00,
2013-02-16 01:11:00,58.0,23.0,-100.00,North,4,9.0,14.0,26,0.00,,,0.00,0.000000,,2013-02-16 09:11:00,
2013-02-16 01:21:00,58.0,23.0,-100.00,North,4,9.0,14.0,26,0.00,,,0.00,0.000000,,2013-02-16 09:21:00,
2013-02-16 01:52:00,58.0,21.0,-100.00,North,3,10.0,14.0,24,0.00,,,0.00,0.000000,,2013-02-16 09:52:00,
2013-02-16 02:01:00,58.0,21.0,-100.00,North,3,10.0,14.0,24,0.00,,,0.00,0.000000,,2013-02-16 10:01:00,
2013-02-16 02:11:00,58.0,21.0,-100.00,North,3,10.0,14.0,24,0.00,,,0.00,0.000000,,2013-02-16 10:11:00,
2013-02-16 02:21:00,58.0,21.0,-100.00,North,3,10.0,14.0,24,0.00,,,0.00,0.000000,,2013-02-16 10:21:00,
2013-02-16 02:52:00,60.0,24.0,-100.00,North,351,9.0,14.0,25,0.00,,,0.00,0.000000,,2013-02-16 10:52:00,
2013-02-16 03:02:00,60.0,24.0,-100.00,North,351,9.0,14.0,25,0.00,,,0.00,0.000000,,2013-02-16 11:02:00,
2013-02-16 03:11:00,60.0,24.0,-100.00,North,351,9.0,14.0,25,0.00,,,0.00,0.000000,,2013-02-16 11:11:00,
2013-02-16 03:22:00,60.0,24.0,-100.00,North,351,9.0,14.0,25,0.00,,,0.00,0.000000,,2013-02-16 11:22:00,
2013-02-16 03:52:00,57.0,22.0,-100.00,North,9,8.0,17.0,25,0.00,,,0.00,0.000000,,2013-02-16 11:52:00,
2013-02-16 04:01:00,57.0,22.0,-100.00,North,9,8.0,17.0,25,0.00,,,0.00,0.000000,,2013-02-16 12:01:00,
2013-02-16 04:12:00,57.0,22.0,-100.00,North,9,8.0,17.0,25,0.00,,,0.00,0.000000,,2013-02-16 12:12:00,
2013-02-16 04:22:00,57.0,22.0,-100.00,North,9,8.0,17.0,25,0.00,,,0.00,0.000000,,2013-02-16 12:22:00,
2013-02-16 04:52:00,57.0,22.0,-100.00,North,7,6.0,12.0,26,0.00,,,0.00,0.000000,,2013-02-16 12:52:00,
2013-02-16 05:01:00,57.0,22.0,-100.00,North,7,6.0,12.0,26,0.00,,,0.00,0.000000,,2013-02-16 13:01:00,
2013-02-16 05:11:00,57.0,22.0,-100.00,North,7,6.0,12.0,26,0.00,,,0.00,0.000000,,2013-02-16 13:11:00,
2013-02-16 05:21:00,57.0,22.0,-100.00,North,7,6.0,12.0,26,0.00,,,0.00,0.000000,,2013-02-16 13:21:00,
2013-02-16 06:52:00,50.0,26.0,-100.00,North,7,0.0,5.0,39,-99.99,,,0.00,1.000000,,2013-02-16 14:52:00,
2013-02-16 07:01:00,50.0,26.0,-100.00,North,7,0.0,5.0,39,-99.99,,,0.00,1.000000,,2013-02-16 15:01:00,
2013-02-16 07:11:00,50.0,26.0,-100.00,North,7,0.0,5.0,39,-99.99,,,0.00,1.000000,,2013-02-16 15:11:00,
2013-02-16 07:21:00,50.0,26.0,-100.00,North,7,0.0,5.0,39,-99.99,,,0.00,1.000000,,2013-02-16 15:21:00,
2013-02-16 07:52:00,57.0,27.0,-100.00,North,353,5.0,8.0,32,0.00,,,0.00,100.000000,,2013-02-16 15:52:00,
2013-02-16 08:01:00,57.0,27.0,-100.00,North,353,5.0,8.0,32,0.00,,,0.00,100.000000,,2013-02-16 16:01:00,
2013-02-16 08:11:00,57.0,27.0,-100.00,North,353,5.0,8.0,32,0.00,,,0.00,100.000000,,2013-02-16 16:11:00,
2013-02-16 08:21:00,57.0,27.0,-100.00,North,353,5.0,8.0,32,0.00,,,0.00,100.000000,,2013-02-16 16:21:00,
2013-02-16 08:52:00,61.0,25.0,-100.00,NNW,333,6.0,9.0,25,0.00,,,0.00,252.000000,,2013-02-16 16:52:00,
2013-02-16 09:01:00,61.0,25.0,-100.00,NNW,333,6.0,9.0,25,0.00,,,0.00,252.000000,,2013-02-16 17:01:00,
2013-02-16 09:11:00,61.0,25.0,-100.00,NNW,333,6.0,9.0,25,0.00,,,0.00,252.000000,,2013-02-16 17:11:00,
2013-02-16 09:21:00,61.0,25.0,-100.00,NNW,333,6.0,9.0,25,0.00,,,0.00,252.000000,,2013-02-16 17:21:00,
2013-02-16 09:52:00,67.0,25.0,-100.00,NW,325,6.0,11.0,20,0.00,,,0.00,555.000000,,2013-02-16 17:52:00,
2013-02-16 10:02:00,67.0,25.0,-100.00,NW,325,6.0,11.0,20,0.00,,,0.00,555.000000,,2013-02-16 18:02:00,
2013-02-16 10:11:00,67.0,25.0,-100.00,NW,325,6.0,11.0,20,0.00,,,0.00,555.000000,,2013-02-16 18:11:00,
2013-02-16 10:21:00,67.0,25.0,-100.00,NW,325,6.0,11.0,20,0.00,,,0.00,555.000000,,2013-02-16 18:21:00,
2013-02-16 10:52:00,71.0,19.0,-100.00,NW,309,5.0,9.0,14,0.00,,,0.00,809.000000,,2013-02-16 18:52:00,
2013-02-16 11:02:00,71.0,19.0,-100.00,NW,309,5.0,9.0,14,0.00,,,0.00,809.000000,,2013-02-16 19:02:00,
2013-02-16 11:11:00,71.0,19.0,-100.00,NW,309,5.0,9.0,14,0.00,,,0.00,809.000000,,2013-02-16 19:11:00,
2013-02-16 11:21:00,71.0,19.0,-100.00,NW,309,5.0,9.0,14,0.00,,,0.00,809.000000,,2013-02-16 19:21:00,
2013-02-16 11:52:00,76.0,20.0,-100.00,WNW,302,5.0,12.0,12,0.00,,,0.00,932.000000,,2013-02-16 19:52:00,
2013-02-16 12:01:00,76.0,20.0,-100.00,WNW,302,5.0,12.0,12,0.00,,,0.00,932.000000,,2013-02-16 20:01:00,
2013-02-16 12:11:00,76.0,20.0,-100.00,WNW,302,5.0,12.0,12,0.00,,,0.00,932.000000,,2013-02-16 20:11:00,
2013-02-16 12:21:00,76.0,20.0,-100.00,WNW,302,5.0,12.0,12,0.00,,,0.00,932.000000,,2013-02-16 20:21:00,
2013-02-16 12:52:00,78.0,19.0,-100.00,WNW,300,6.0,14.0,11,0.00,,,0.00,940.000000,,2013-02-16 20:52:00,
2013-02-16 13:02:00,78.0,19.0,-100.00,WNW,300,6.0,14.0,11,0.00,,,0.00,940.000000,,2013-02-16 21:02:00,
2013-02-16 13:11:00,78.0,19.0,-100.00,WNW,300,6.0,14.0,11,0.00,,,0.00,940.000000,,2013-02-16 21:11:00,
2013-02-16 13:21:00,78.0,19.0,-100.00,WNW,300,6.0,14.0,11,0.00,,,0.00,940.000000,,2013-02-16 21:21:00,
2013-02-16 13:52:00,79.0,20.0,-100.00,NW,325,9.0,14.0,11,0.00,,,-99.99,908.000000,,2013-02-16 21:52:00,
2013-02-16 14:01:00,79.0,20.0,-100.00,NW,325,9.0,14.0,11,0.00,,,-99.99,908.000000,,2013-02-16 22:01:00,
2013-02-16 14:11:00,79.0,20.0,-100.00,NW,325,9.0,14.0,11,0.00,,,-99.99,908.000000,,2013-02-16 22:11:00,
2013-02-16 14:21:00,79.0,20.0,-100.00,NW,325,9.0,14.0,11,0.00,,,-99.99,908.000000,,2013-02-16 22:21:00,
2013-02-16 14:52:00,79.0,18.0,-100.00,NW,326,8.0,15.0,10,0.00,,,0.00,819.000000,,2013-02-16 22:52:00,
2013-02-16 15:02:00,79.0,18.0,-100.00,NW,326,8.0,15.0,10,0.00,,,0.00,819.000000,,2013-02-16 23:02:00,
2013-02-16 15:11:00,79.0,18.0,-100.00,NW,326,8.0,15.0,10,0.00,,,0.00,819.000000,,2013-02-16 23:11:00,
2013-02-16 15:21:00,79.0,18.0,-100.00,NW,326,8.0,15.0,10,0.00,,,0.00,819.000000,,2013-02-16 23:21:00,
2013-02-16 15:52:00,78.0,17.0,-100.00,NNW,329,8.0,15.0,10,0.00,,,0.00,616.000000,,2013-02-16 23:52:00,
2013-02-16 16:02:00,78.0,17.0,-100.00,NNW,329,8.0,15.0,10,0.00,,,0.00,616.000000,,2013-02-17 00:02:00,
2013-02-16 16:11:00,78.0,17.0,-100.00,NNW,329,8.0,15.0,10,0.00,,,0.00,616.000000,,2013-02-17 00:11:00,
2013-02-16 16:21:00,78.0,17.0,-100.00,NNW,329,8.0,15.0,10,0.00,,,0.00,616.000000,,2013-02-17 00:21:00,
2013-02-16 16:52:00,77.0,16.0,-100.00,NW,317,9.0,17.0,10,0.00,,,0.00,351.000000,,2013-02-17 00:52:00,
2013-02-16 17:01:00,77.0,16.0,-100.00,NW,317,9.0,17.0,10,0.00,,,0.00,351.000000,,2013-02-17 01:01:00,
2013-02-16 17:11:00,77.0,16.0,-100.00,NW,317,9.0,17.0,10,0.00,,,0.00,351.000000,,2013-02-17 01:11:00,
2013-02-16 17:21:00,77.0,16.0,-100.00,NW,317,9.0,17.0,10,0.00,,,0.00,351.000000,,2013-02-17 01:21:00,
2013-02-16 17:52:00,75.0,15.0,-100.00,NNW,328,10.0,16.0,10,0.00,,,0.00,74.000000,,2013-02-17 01:52:00,
2013-02-16 18:01:00,75.0,15.0,-100.00,NNW,328,10.0,16.0,10,0.00,,,0.00,74.000000,,2013-02-17 02:01:00,
2013-02-16 18:11:00,75.0,15.0,-100.00,NNW,328,10.0,16.0,10,0.00,,,0.00,74.000000,,2013-02-17 02:11:00,
2013-02-16 18:21:00,75.0,15.0,-100.00,NNW,328,10.0,16.0,10,0.00,,,0.00,74.000000,,2013-02-17 02:21:00,
2013-02-16 18:52:00,70.0,15.0,-100.00,WNW,288,4.0,14.0,12,0.00,,,0.00,0.000000,,2013-02-17 02:52:00,
2013-02-16 19:01:00,70.0,15.0,-100.00,WNW,288,4.0,14.0,12,0.00,,,0.00,0.000000,,2013-02-17 03:01:00,
2013-02-16 19:11:00,70.0,15.0,-100.00,WNW,288,4.0,14.0,12,0.00,,,0.00,0.000000,,2013-02-17 03:11:00,
2013-02-16 19:52:00,68.0,15.0,-100.00,NW,312,2.0,8.0,13,0.00,,,0.00,0.000000,,2013-02-17 03:52:00,
2013-02-16 20:01:00,68.0,15.0,-100.00,NW,312,2.0,8.0,13,0.00,,,0.00,0.000000,,2013-02-17 04:01:00,
2013-02-16 20:52:00,65.0,18.0,-100.00,NW,314,1.0,6.0,16,0.00,,,0.00,0.000000,,2013-02-17 04:52:00,
2013-02-16 21:01:00,65.0,18.0,-100.00,NW,314,1.0,6.0,16,0.00,,,0.00,0.000000,,2013-02-17 05:01:00,
2013-02-16 21:11:00,65.0,18.0,-100.00,NW,314,1.0,6.0,16,0.00,,,0.00,0.000000,,2013-02-17 05:11:00,
2013-02-16 21:52:00,62.0,19.0,-100.00,North,6,2.0,5.0,19,0.00,,,0.00,0.000000,,2013-02-17 05:52:00,
2013-02-16 22:02:00,62.0,19.0,-100.00,North,6,2.0,5.0,19,0.00,,,0.00,0.000000,,2013-02-17 06:02:00,
2013-02-16 22:11:00,62.0,19.0,-100.00,North,6,2.0,5.0,19,0.00,,,0.00,0.000000,,2013-02-17 06:11:00,
2013-02-16 22:21:00,62.0,19.0,-100.00,North,6,2.0,5.0,19,0.00,,,0.00,0.000000,,2013-02-17 06:21:00,
2013-02-16 22:52:00,61.0,21.0,-100.00,NW,312,0.0,5.0,21,0.00,,,0.00,0.000000,,2013-02-17 06:52:00,
2013-02-16 23:01:00,61.0,21.0,-100.00,NW,312,0.0,5.0,21,0.00,,,0.00,0.000000,,2013-02-17 07:01:00,
2013-02-16 23:52:00,57.0,22.0,-100.00,North,349,0.0,5.0,26,-99.99,,,0.00,0.000000,,2013-02-17 07:52:00,